EW7329 Weather Reports


time (UTC)temp
C
wind
direction
speed
KPH
gust
KPH
rain 1hr
cm
rain 24hr
cm
rain mn
cm
humidity
%
barometer
mb
20260506144503 19 183 16.1 41.8 0.00 0.00 0.00 62 1000.8
20260506143002 18 225 22.5 30.6 0.00 0.00 0.00 63 1000.9
20260506141600 20 178 19.3 41.8 0.00 0.00 0.00 60 1000.9
20260506140059 20 181 16.1 41.8 0.00 0.00 0.00 60 1000.8
20260506134557 20 254 19.3 43.5 0.00 0.00 0.00 58 1001.2
20260506133057 20 220 20.9 37.0 0.00 0.00 0.00 56 1001.1
20260506131602 21 278 14.5 32.2 0.00 0.00 0.00 55 1000.9
20260506130126 21 170 17.7 33.8 0.00 0.00 0.00 56 1001.0
20260506124559 21 224 20.9 38.6 0.00 0.00 0.00 54 1001.2
20260506123054 21 165 14.5 27.4 0.00 0.00 0.00 53 1000.9
20260506121555 22 167 14.5 30.6 0.00 0.00 0.00 51 1001.2
20260506120100 22 138 14.5 25.7 0.00 0.00 0.00 53 1001.2
20260506114551 22 180 9.7 30.6 0.00 0.00 0.00 55 1001.2
20260506113055 22 193 11.3 30.6 0.00 0.00 0.00 55 1001.3
20260506111548 21 186 9.7 22.5 0.00 0.00 0.00 56 1001.6
20260506110054 21 184 12.9 24.1 0.00 0.00 0.00 54 1001.9
20260506104552 20 142 11.3 22.5 0.00 0.00 0.00 55 1002.1
20260506103050 20 170 8.0 19.3 0.00 0.00 0.00 57 1002.1
20260506101555 20 176 12.9 22.5 0.00 0.00 0.00 57 1002.1
20260506100101 18 171 12.9 19.3 0.00 0.00 0.00 61 1002.4
20260506094542 18 180 12.9 22.5 0.00 0.00 0.00 60 1002.4
20260506093045 19 194 14.5 25.7 0.00 0.00 0.00 57 1002.3
20260506091540 21 158 12.9 27.4 0.00 0.00 0.00 52 1001.9
20260506090138 21 151 12.9 25.7 0.00 0.00 0.00 53 1001.8
20260506084559 21 183 17.7 33.8 0.00 0.00 0.00 50 1002.0
20260506083039 21 171 9.7 24.1 0.00 0.00 0.00 50 1002.0
20260506081541 21 238 9.7 20.9 0.00 0.00 0.00 52 1001.8
20260506073036 18 175 1.6 9.7 0.00 0.00 0.00 61 1002.1
20260506071519 18 263 3.2 6.4 0.00 0.00 0.00 63 1002.2
20260506061506 13 5 1.6 6.4 0.00 0.00 0.00 75 1002.4
20260506044503 8 5 3.2 6.4 0.00 0.00 0.00 90 1002.3
20260506043110 8 355 1.6 6.4 0.00 0.00 0.00 90 1002.1
20260506041604 8 302 1.6 4.8 0.00 0.00 0.00 88 1002.1
20260506040057 8 326 1.6 8.0 0.00 0.00 0.00 88 1002.1
20260506034626 8 312 1.6 4.8 0.00 0.00 0.00 88 1002.1
20260506033101 8 355 0.0 4.8 0.00 0.00 0.00 88 1001.9
20260506031553 8 276 1.6 3.2 0.00 0.00 0.00 87 1001.9
20260506030050 8 92 3.2 9.7 0.00 0.00 0.00 87 1001.8
20260506024548 9 309 0.0 3.2 0.00 0.00 0.00 86 1001.8
20260506023105 9 295 3.2 4.8 0.00 0.00 0.00 85 1001.8
20260506021545 9 9 0.0 4.8 0.00 0.00 0.00 85 1001.8
20260506020045 10 5 1.6 6.4 0.00 0.00 0.00 85 1001.6
20260506014540 10 252 1.6 6.4 0.00 0.00 0.00 84 1001.6
20260506013040 10 316 1.6 4.8 0.00 0.00 0.00 82 1001.4
20260506011534 10 5 3.2 8.0 0.00 0.00 0.00 82 1001.3
20260506010032 11 5 0.0 6.4 0.00 0.00 0.00 81 1001.1
20260506004546 11 275 1.6 11.3 0.00 0.00 0.00 80 1001.1
20260506003038 11 287 0.0 6.4 0.00 0.00 0.00 78 1001.1
20260506001524 12 355 4.8 9.7 0.00 0.00 0.00 77 1000.9
20260506000025 12 26 0.0 8.0 0.00 0.00 0.00 75 1001.0
20260505234526 13 355 0.0 9.7 0.00 0.00 0.00 73 1001.1
20260505233018 13 325 0.0 11.3 0.00 0.00 0.00 71 1001.2
20260505231516 14 304 1.6 12.9 0.00 0.00 0.00 69 1001.2
20260505230012 15 317 6.4 12.9 0.00 0.00 0.00 67 1001.1
20260505224511 15 168 6.4 20.9 0.00 0.00 0.00 66 1000.9
20260505223009 15 229 9.7 17.7 0.00 0.00 0.00 67 1000.8
20260505221512 15 155 8.0 22.5 0.00 0.00 0.00 65 1000.9
20260505220108 13 168 11.3 20.9 0.00 0.00 0.00 71 1000.9
20260505214503 13 198 8.0 14.5 0.00 0.00 0.00 73 1001.2
20260505213002 13 167 3.2 8.0 0.00 0.00 0.00 72 1001.3
20260505211502 13 205 4.8 11.3 0.00 0.00 0.00 73 1001.3
20260505210101 14 171 3.2 11.3 0.00 0.00 0.00 71 1001.3
20260505204609 14 159 3.2 9.7 0.00 0.00 0.00 71 1001.6
20260505203100 14 131 3.2 12.9 0.00 0.00 0.00 71 1001.4
20260505201602 15 167 6.4 11.3 0.00 0.00 0.00 69 1001.5
20260505200103 15 155 4.8 9.7 0.00 0.00 0.00 66 1001.6
20260505194557 15 167 1.6 9.7 0.00 0.00 0.00 66 1001.5
20260505193059 15 174 4.8 12.9 0.00 0.00 0.00 65 1001.4
20260505191600 15 178 11.3 17.7 0.00 0.00 0.00 66 1001.3
20260505190056 15 162 6.4 14.5 0.00 0.00 0.00 66 1001.4
20260505184602 15 166 8.0 17.7 0.00 0.00 0.00 66 1001.4
20260505183054 15 157 9.7 19.3 0.00 0.00 0.00 65 1001.3
20260505181551 15 188 8.0 19.3 0.00 0.00 0.00 65 1001.2
20260505180054 16 171 9.7 22.5 0.00 0.00 0.00 64 1001.4
20260505174607 16 157 9.7 17.7 0.00 0.00 0.00 61 1001.4
20260505173047 17 149 11.3 22.5 0.00 0.00 0.00 60 1001.4
20260505171547 17 162 16.1 27.4 0.00 0.00 0.00 58 1001.6
20260505170107 17 182 14.5 25.7 0.00 0.00 0.00 57 1001.6
20260505164545 17 211 12.9 27.4 0.00 0.00 0.00 57 1001.6
20260505163045 17 202 14.5 25.7 0.00 0.00 0.00 56 1001.6
20260505161553 18 167 12.9 22.5 0.00 0.00 0.00 54 1001.6
20260505153052 18 150 11.3 32.2 0.00 0.00 0.00 53 1001.8
20260505151545 19 134 14.5 29.0 0.00 0.00 0.00 51 1001.6